sat.trackr.live / text

‹ back to catalog

STARLINK-2361

NORAD 47901 · 2021-021AT

PAYLOAD ACTIVE UNKNOWN

§ Identity

Operator
Country
US
Launch date
2021-03-14
Launch site
AFETR
Launch vehicle
Mass (kg)
RCS (m²)

Purposes: comms

External: N2YO · Heavens-Above · Gunter

§ Orbital elements

Epoch: 2026-05-25T01:03:04.655232Z

Period
93.71 min
Inclination
53.1568°
Eccentricity
0.0003179
Mean motion
15.36599655 rev/d
Perigee alt
454.0 km
Apogee alt
458.3 km
Semi-major
6,834.3 km
B*
1.1858e-3
RAAN
259.0925°
Arg perigee
301.0438°
Mean anomaly
59.0253°
Rev number
28,813

§ Raw data

STARLINK-23611 47901U 21021AT  26145.04380388  .00042850  00000+0  11858-2 0  99922 47901  53.1568 259.0925 0003179 301.0438  59.0253 15.36599655288132

JSON: /api/v1/satellites/47901 · /tle

For live sub-satellite position, see the globe view (requires WebGL).

§ Visibility from observer

Set your observer location to see the next 7 days of passes ≥ 10°. The values pass through the URL so the page stays shareable.

No JS? Fill the form by hand. The geolocation button needs JavaScript.